TimeEDT,TemperatureF,Dew PointF,Humidity,Sea Level PressureIn,VisibilityMPH,Wind Direction,Wind SpeedMPH,Gust SpeedMPH,PrecipitationIn,Events,Conditions,WindDirDegrees,DateUTC
12:15 AM,63.1,60.8,92,30.18,10.0,Calm,Calm,-,N/A,,Clear,0,2013-08-24 04:15:00
12:35 AM,62.6,61.0,94,30.18,10.0,Calm,Calm,-,N/A,,Clear,0,2013-08-24 04:35:00
12:55 AM,61.7,60.3,95,30.20,7.0,Calm,Calm,-,N/A,,Scattered Clouds,0,2013-08-24 04:55:00
1:15 AM,62.4,61.7,97,30.20,5.0,NNW,3.5,-,N/A,,Mostly Cloudy,340,2013-08-24 05:15:00
1:35 AM,63.1,61.7,95,30.20,10.0,North,3.5,-,N/A,,Overcast,350,2013-08-24 05:35:00
1:55 AM,63.5,61.7,94,30.20,10.0,Calm,Calm,-,N/A,,Overcast,0,2013-08-24 05:55:00
2:15 AM,62.6,61.0,94,30.20,10.0,Calm,Calm,-,N/A,,Mostly Cloudy,0,2013-08-24 06:15:00
2:35 AM,62.6,61.2,95,30.20,10.0,Calm,Calm,-,N/A,,Clear,0,2013-08-24 06:35:00
2:55 AM,62.4,61.3,96,30.20,10.0,Calm,Calm,-,N/A,,Clear,0,2013-08-24 06:55:00
3:15 AM,60.8,59.9,97,30.20,5.0,Calm,Calm,-,N/A,,Clear,0,2013-08-24 07:15:00
3:35 AM,60.8,60.1,97,30.20,5.0,Calm,Calm,-,N/A,,Clear,0,2013-08-24 07:35:00
3:55 AM,59.2,58.5,97,30.21,3.0,Calm,Calm,-,N/A,,Clear,0,2013-08-24 07:55:00
4:15 AM,59.2,58.6,98,30.21,0.5,Calm,Calm,-,N/A,Fog,Fog,0,2013-08-24 08:15:00
4:35 AM,58.3,57.7,98,30.22,2.0,Calm,Calm,-,N/A,,Clear,0,2013-08-24 08:35:00
4:55 AM,58.1,57.6,98,30.22,1.2,Calm,Calm,-,N/A,,Mist,0,2013-08-24 08:55:00
5:15 AM,57.6,57.2,99,30.22,3.0,Calm,Calm,-,N/A,,Clear,0,2013-08-24 09:15:00
5:35 AM,57.2,56.5,97,30.23,1.5,Calm,Calm,-,N/A,,Scattered Clouds,0,2013-08-24 09:35:00
5:55 AM,56.7,56.1,98,30.23,0.5,Calm,Calm,-,N/A,Fog,Fog,0,2013-08-24 09:55:00
6:15 AM,56.3,55.9,99,30.24,2.5,Calm,Calm,-,N/A,,Scattered Clouds,0,2013-08-24 10:15:00
6:35 AM,55.8,55.2,98,30.25,0.5,Calm,Calm,-,N/A,Fog,Fog,0,2013-08-24 10:35:00
6:55 AM,55.4,54.9,98,30.26,1.2,Calm,Calm,-,N/A,,Mist,0,2013-08-24 10:55:00
7:15 AM,56.3,55.8,98,30.27,4.0,Calm,Calm,-,N/A,,Clear,0,2013-08-24 11:15:00
7:35 AM,57.6,57.2,99,30.27,4.0,Calm,Calm,-,N/A,,Clear,0,2013-08-24 11:35:00
7:55 AM,60.6,60.1,98,30.28,10.0,Calm,Calm,-,N/A,,Clear,0,2013-08-24 11:55:00
8:15 AM,62.6,60.8,94,30.28,10.0,North,3.5,-,N/A,,Clear,360,2013-08-24 12:15:00
8:35 AM,64.4,61.5,90,30.28,10.0,North,3.5,-,N/A,,Clear,360,2013-08-24 12:35:00
8:55 AM,66.2,62.4,88,30.29,10.0,North,4.6,-,N/A,,Clear,10,2013-08-24 12:55:00
9:15 AM,68.0,62.2,82,30.30,10.0,North,4.6,-,N/A,,Clear,10,2013-08-24 13:15:00
9:35 AM,69.8,61.3,74,30.30,10.0,North,5.8,-,N/A,,Clear,10,2013-08-24 13:35:00
9:55 AM,71.1,61.5,72,30.31,10.0,Calm,Calm,-,N/A,,Clear,0,2013-08-24 13:55:00
10:15 AM,73.0,61.3,67,30.31,10.0,ENE,4.6,-,N/A,,Clear,70,2013-08-24 14:15:00
10:35 AM,73.4,60.1,63,30.32,10.0,NE,3.5,-,N/A,,Clear,50,2013-08-24 14:35:00
10:55 AM,75.4,59.0,57,30.33,10.0,NE,5.8,-,N/A,,Clear,50,2013-08-24 14:55:00
11:15 AM,76.6,57.9,52,30.33,10.0,ENE,5.8,-,N/A,,Clear,70,2013-08-24 15:15:00
11:35 AM,76.6,57.7,52,30.32,10.0,NE,3.5,-,N/A,,Clear,50,2013-08-24 15:35:00
11:55 AM,77.5,58.1,51,30.32,10.0,NE,4.6,-,N/A,,Clear,40,2013-08-24 15:55:00
12:15 PM,77.9,57.4,49,30.32,10.0,ENE,5.8,-,N/A,,Clear,60,2013-08-24 16:15:00
12:35 PM,78.4,58.1,50,30.32,10.0,NE,5.8,-,N/A,,Clear,50,2013-08-24 16:35:00
12:55 PM,79.9,58.1,47,30.32,10.0,NE,5.8,-,N/A,,Clear,50,2013-08-24 16:55:00
1:15 PM,80.4,57.9,46,30.31,10.0,ENE,5.8,-,N/A,,Clear,70,2013-08-24 17:15:00
1:35 PM,81.0,57.7,45,30.31,10.0,East,5.8,-,N/A,,Scattered Clouds,80,2013-08-24 17:35:00
1:55 PM,81.9,56.7,42,30.31,10.0,East,6.9,-,N/A,,Clear,90,2013-08-24 17:55:00
2:15 PM,81.5,56.3,42,30.31,10.0,NE,9.2,-,N/A,,Clear,50,2013-08-24 18:15:00
2:35 PM,81.9,57.0,43,30.31,10.0,ENE,6.9,16.1,N/A,,Clear,70,2013-08-24 18:35:00
2:55 PM,80.8,56.1,43,30.31,10.0,ENE,6.9,-,N/A,,Scattered Clouds,60,2013-08-24 18:55:00
3:15 PM,79.9,56.3,44,30.31,10.0,ENE,4.6,-,N/A,,Mostly Cloudy,60,2013-08-24 19:15:00
3:35 PM,82.4,57.9,43,30.30,10.0,East,8.1,-,N/A,,Scattered Clouds,100,2013-08-24 19:35:00
3:55 PM,78.6,58.3,50,30.30,10.0,ENE,3.5,-,N/A,,Mostly Cloudy,60,2013-08-24 19:55:00
4:15 PM,81.7,56.7,42,30.30,10.0,ENE,5.8,-,N/A,,Scattered Clouds,70,2013-08-24 20:15:00
4:35 PM,82.4,57.7,43,30.30,10.0,East,6.9,-,N/A,,Mostly Cloudy,80,2013-08-24 20:35:00
4:55 PM,83.3,58.5,43,30.30,10.0,ENE,4.6,-,N/A,,Scattered Clouds,70,2013-08-24 20:55:00
5:15 PM,77.5,58.5,52,30.30,10.0,ENE,3.5,-,N/A,,Scattered Clouds,70,2013-08-24 21:15:00
5:35 PM,81.0,55.9,42,30.30,10.0,NE,6.9,-,N/A,,Scattered Clouds,40,2013-08-24 21:35:00
5:55 PM,81.0,55.9,42,30.30,10.0,ENE,3.5,-,N/A,,Mostly Cloudy,60,2013-08-24 21:55:00
6:15 PM,80.2,58.1,47,30.30,10.0,East,4.6,-,N/A,,Scattered Clouds,100,2013-08-24 22:15:00
6:35 PM,79.0,58.1,49,30.30,10.0,Calm,Calm,-,N/A,,Scattered Clouds,0,2013-08-24 22:35:00
6:55 PM,78.3,59.9,53,30.30,10.0,Calm,Calm,-,N/A,,Clear,0,2013-08-24 22:55:00
7:15 PM,75.9,60.8,59,30.30,10.0,Calm,Calm,-,N/A,,Clear,0,2013-08-24 23:15:00
7:35 PM,72.0,63.9,76,30.30,10.0,Calm,Calm,-,N/A,,Clear,0,2013-08-24 23:35:00
7:55 PM,67.5,64.0,89,30.31,10.0,Calm,Calm,-,N/A,,Clear,0,2013-08-24 23:55:00
8:15 PM,65.8,63.3,92,30.31,10.0,Calm,Calm,-,N/A,,Clear,0,2013-08-25 00:15:00
8:35 PM,64.2,62.1,93,30.32,10.0,Calm,Calm,-,N/A,,Clear,0,2013-08-25 00:35:00
8:55 PM,63.1,61.7,95,30.33,10.0,Calm,Calm,-,N/A,,Clear,0,2013-08-25 00:55:00
9:15 PM,62.6,61.2,95,30.33,10.0,Calm,Calm,-,N/A,,Clear,0,2013-08-25 01:15:00
9:35 PM,62.2,61.3,97,30.34,7.0,Calm,Calm,-,N/A,,Clear,0,2013-08-25 01:35:00
9:55 PM,61.2,60.1,96,30.35,10.0,Calm,Calm,-,N/A,,Clear,0,2013-08-25 01:55:00
10:15 PM,60.8,59.9,97,30.35,10.0,Calm,Calm,-,N/A,,Clear,0,2013-08-25 02:15:00
10:35 PM,60.8,59.7,96,30.35,10.0,Calm,Calm,-,N/A,,Clear,0,2013-08-25 02:35:00
10:55 PM,59.2,58.3,97,30.36,3.0,Calm,Calm,-,N/A,,Clear,0,2013-08-25 02:55:00
11:15 PM,59.0,58.1,97,30.37,5.0,Calm,Calm,-,N/A,,Clear,0,2013-08-25 03:15:00
11:35 PM,58.6,57.6,96,30.37,7.0,Calm,Calm,-,N/A,,Clear,0,2013-08-25 03:35:00
11:55 PM,58.1,57.2,97,30.37,4.0,Calm,Calm,-,N/A,,Clear,0,2013-08-25 03:55:00